This is the latest recevied weather packets stored in our database for station/object VK2XSE. If no packets are shown the sender has not sent any weather packets the latest 10 day(s).
| Time | Temp. | Humidity | Pressure | Rain* | Wind** | Luminosity | Snow |
|---|---|---|---|---|---|---|---|
| 1777198517 | 17.22° C | 57% | 1021.6 hPa | 0 mm | - | 0 W/m² | - |
| 1777197917 | 17.22° C | 58% | 1021.6 hPa | 0 mm | - | 0 W/m² | - |
| 1777197317 | 17.78° C | 58% | 1021.5 hPa | 0 mm | - | 0 W/m² | - |
| 1777196717 | 18.33° C | 57% | 1021.4 hPa | 0 mm | - | 0 W/m² | - |
| 1777196119 | 18.89° C | 55% | 1021.4 hPa | 0 mm | - | 0 W/m² | - |
| 1777195519 | 19.44° C | 53% | 1021.3 hPa | 0 mm | - | 0 W/m² | - |
| 1777194919 | 19.44° C | 58% | 1021.1 hPa | 0 mm | - | 0 W/m² | - |
| 1777194318 | 20.56° C | 54% | 1021 hPa | 0 mm | - | 0 W/m² | - |
| 1777193719 | 21.11° C | 55% | 1021 hPa | 0 mm | - | 0 W/m² | - |
| 1777193118 | 21.67° C | 44% | 1020.9 hPa | 0 mm | - | 0 W/m² | - |
| 1777192518 | 21.67° C | 41% | 1020.7 hPa | 0 mm | - | 0 W/m² | - |
| 1777191918 | 22.22° C | 39% | 1020.7 hPa | 0 mm | - | 0 W/m² | - |
| 1777191318 | 22.78° C | 38% | 1020.6 hPa | 0 mm | - | 0 W/m² | - |
| 1777190718 | 22.78° C | 38% | 1020.5 hPa | 0 mm | - | 0 W/m² | - |
| 1777190118 | 23.33° C | 38% | 1020.5 hPa | 0 mm | - | 0 W/m² | - |
| 1777189518 | 23.33° C | 37% | 1020.3 hPa | 0 mm | - | 11 W/m² | - |
| 1777188918 | 23.89° C | 40% | 1020.2 hPa | 0 mm | - | 20 W/m² | - |
| 1777188318 | 23.89° C | 40% | 1020.2 hPa | 0 mm | - | 33 W/m² | - |
| 1777187718 | 24.44° C | 39% | 1020.2 hPa | 0 mm | - | 46 W/m² | - |
| 1777187118 | 24.44° C | 38% | 1020.1 hPa | 0 mm | - | 58 W/m² | - |
| 1777186518 | 24.44° C | 36% | 1020.2 hPa | 0 mm | - | 75 W/m² | - |
| 1777185918 | 25° C | 38% | 1020.3 hPa | 0 mm | - | 83 W/m² | - |
| 1777185318 | 25° C | 37% | 1020.3 hPa | 0 mm | - | 86 W/m² | - |
| 1777184718 | 25° C | 35% | 1020.4 hPa | 0 mm | - | 89 W/m² | - |
| 1777184118 | 25° C | 35% | 1020.5 hPa | 0 mm | - | 115 W/m² | - |
* Rain latest hour (hover to see other rain measurements)
** Current wind speed in m/s (hover to see current wind gust speed)